Location: Chapleau
(47.8423°N, 83.4026°W)
Time: 06:19:32
(UTC-04:00)

ISS - Visible Passes

Search period start: 28 May 2022 00:00
Search period end: 07 June 2022 00:00
Orbit: 414 x 421 km, 51.6° (Epoch: 28 May)

Date Brightness Start Highest point End Pass type
(mag) Time Alt. Az. Time Alt. Az. Time Alt. Az.
28 May -2.8 22:48:15 10° WNW 22:51:20 34° SW 22:53:07 20° SSE visible
29 May -3.4 21:59:59 10° WNW 22:03:16 52° SSW 22:06:31 10° SE visible
30 May -1.5 22:49:24 10° W 22:51:26 15° SW 22:53:16 11° S visible
31 May -2.0 22:00:41 10° W 22:03:26 23° SW 22:06:10 10° SSE visible
